User: anonymous   Login
Location: Hartman Creek State Park
(44.3257°N, 89.2134°W)
Time: 04:26:31
(UTC-06:00)
Language:

Cosmos 2263 Rocket - Orbit

View from above orbital plane
View from above orbital plane
View from above satellite
View from above satellite

Ground track
Ground track

The orbit data is extracted from the following two-line orbital elements,

1 22803U 93059B   17321.36520221 +.00000167 +00000-0 +10735-3 0  9999
2 22803 070.9901 286.6522 0016290 159.8804 200.2966 14.16785341249726
Epoch (UTC): 17 November 2017 08:45:53
Eccentricity: 0.0016290
inclination: 70.9901°
perigee height: 824 km
apogee height: 848 km
right ascension of ascending node: 286.6522°
argument of perigee: 159.8804°
revolutions per day: 14.16785341
mean anomaly at epoch: 200.2966°
orbit number at epoch: 24972

The dashed part of the orbit path shows where the satellite is in the earth's shadow,  

DLR